Regional Weather Roundup
Issued by NWS

Home | Current Version | Previous Version | Text Only | Print | Product List | Glossary Off
Versions: 1 2 3 4 5 6 7 8 9 10 11 12 13 14 15 16 17 18 19 20 21 22 23 24 25 26 27 28 29 30 31 32 33 34 35 36 37 38 39 40 41 42 43 44 45 46 47 48 49 50

000
ASUS44 KMEG 290510
RWRTN
TENNESSEE HOURLY STATE WEATHER ROUNDUP
NATIONAL WEATHER SERVICE MEMPHIS TN
1100 PM CST SUN DEC 28 2014

TNZ002-004-019-021-049-052-054-088>092-290600-
WEST TENNESSEE

CITY           SKY/WX    TMP DP  RH WIND       PRES   REMARKS
MEMPHIS INTL   CLOUDY    39  35  86 E6        30.18S WCI  35
NWS MEMPHIS      N/A     37 N/A N/A MISG        N/A
JACKSON        CLOUDY    38  35  89 N6        30.18R WCI  33
DYERSBURG      CLOUDY    36  23  60 NE8       30.20F WCI  29
UNION CITY     CLOUDY    34  32  93 NE3       30.19R
PARIS          CLOUDY    34  30  86 NE3       30.19R
HUNTINGDON     CLOUDY    34  31  89 N5        30.18S WCI  30
LEXINGTON      CLOUDY    36  36 100 NE5       30.15F WCI  32
SAVANNAH       CLOUDY    39  39 100 NE5       30.16S
$$

TNZ008-025-027-028-033-062-065-066-290600-
NORTH MIDDLE TENNESSEE

CITY           SKY/WX    TMP DP  RH WIND       PRES   REMARKS
NASHVILLE      MIX PCPN  37  35  92 N7        30.17F WCI  32
CLARKSVILLE    CLOUDY    35  32  88 N8        30.19R WCI  29
SMYRNA         CLOUDY    38  37  96 N8        30.17R FOG     WCI  32
COOKEVILLE     CLOUDY    39  39 100 CALM      30.10F
CROSSVILLE     LGT RAIN  43  40  89 NE5       30.09F
$$

TNZ061-075-076-078-094-096-097-290600-
SOUTH MIDDLE TENNESSEE

CITY           SKY/WX    TMP DP  RH WIND       PRES   REMARKS
FAYETTEVILLE   CLOUDY    39  37  93 N6        30.11R WCI  35
TULLAHOMA      CLOUDY    39  39 100 N5        30.11S
WINCHESTER     CLOUDY    43  41  93 CALM      30.10F
MCMINNVILLE    MOCLDY    41  41 100 CALM      30.10F
COLUMBIA       CLOUDY   N/A N/A N/A N5        30.13R
SHELBYVILLE    CLOUDY    41  39  93 N6        30.14R
$$

TNZ017-018-042-046-047-290600-
NORTHEAST TENNESSEE

CITY           SKY/WX    TMP DP  RH WIND       PRES   REMARKS
TRI CITIES     LGT RAIN  48  47  96 CALM      30.10S VSB 1/2
ELIZABETHTON   LGT RAIN  46  46 100 CALM      30.10S FOG
$$

TNZ012-013-036-069-073-074-290600-
CENTRAL EAST TENNESSEE

CITY           SKY/WX    TMP DP  RH WIND       PRES   REMARKS
KNOXVILLE      LGT RAIN  48  47  96 N6        30.10R FOG
OAK RIDGE      LGT RAIN  46  45  96 VRB3      30.10F
GATLINBURG     CLOUDY    48  48 100 CALM      30.09S VSB 1/2
MORRISTOWN     CLOUDY    46  46 100 CALM      30.10R VSB 1/2
$$

TNZ083-085-099-290600-
SOUTHEAST TENNESSEE

CITY           SKY/WX    TMP DP  RH WIND       PRES   REMARKS
CHATTANOOGA    CLOUDY    50  47  89 N3        30.10F
$$

SKY/WX REPORTED AS FAIR MEANS FEW OR NO CLOUDS BELOW
12 THOUSAND FEET.



USA.gov is the U.S. government's official web portal to all federal, state and local government web resources and services.